This is the latest recevied weather packets stored in our database for station/object KC5TIL-3. If no packets are shown the sender has not sent any weather packets the latest 10 day(s).
| Time | Temp. | Humidity | Pressure | Rain* | Wind** | Luminosity | Snow |
|---|---|---|---|---|---|---|---|
| 1777501008 | 17.22° C | 45% | 1010.8 hPa | 0 mm | 3.13 m/s, 10° | - | - |
| 1777500710 | 17.22° C | 45% | 1010.8 hPa | 0 mm | 3.58 m/s, 12° | - | - |
| 1777500105 | 17.78° C | 45% | 1010.8 hPa | 0 mm | 3.13 m/s, 17° | - | - |
| 1777499807 | 17.78° C | 45% | 1010.8 hPa | 0 mm | 3.13 m/s, 29° | - | - |
| 1777499506 | 17.22° C | 45% | 1011.8 hPa | 0 mm | 2.68 m/s, 339° | - | - |
| 1777499207 | 17.22° C | 44% | 1011.8 hPa | 0 mm | 3.58 m/s, 23° | - | - |
| 1777498608 | 17.78° C | 44% | 1010.8 hPa | 0 mm | 2.24 m/s, 25° | - | - |
| 1777498310 | 17.78° C | 44% | 1010.8 hPa | 0 mm | 2.24 m/s, 340° | - | - |
| 1777497412 | 17.78° C | 43% | 1010.8 hPa | 0 mm | 3.13 m/s, 14° | - | - |
| 1777497115 | 17.78° C | 43% | 1010.8 hPa | 0 mm | 3.13 m/s, 331° | - | - |
| 1777496813 | 17.78° C | 44% | 1010.8 hPa | 0 mm | 1.79 m/s, 329° | - | - |
| 1777496515 | 17.78° C | 44% | 1010.8 hPa | 0 mm | 3.13 m/s, 356° | - | - |
| 1777495915 | 17.78° C | 44% | 1010.8 hPa | 0 mm | 3.58 m/s, 21° | - | - |
| 1777495612 | 17.78° C | 43% | 1010.8 hPa | 0 mm | 4.47 m/s, 18° | - | - |
| 1777495314 | 18.33° C | 43% | 1010.8 hPa | 0 mm | 3.13 m/s, 36° | - | - |
| 1777495013 | 18.33° C | 43% | 1010.8 hPa | 0 mm | 2.24 m/s, 12° | - | - |
| 1777494714 | 18.33° C | 44% | 1010.8 hPa | 0 mm | 2.68 m/s, 42° | - | - |
| 1777494417 | 17.78° C | 43% | 1010.8 hPa | 0 mm | 4.92 m/s, 46° | - | - |
| 1777494115 | 17.78° C | 44% | 1010.8 hPa | 0 mm | 3.58 m/s, 3° | - | - |
| 1777493817 | 17.78° C | 44% | 1010.8 hPa | 0 mm | 4.47 m/s, 32° | - | - |
| 1777493217 | 17.78° C | 44% | 1011.8 hPa | 0 mm | 4.47 m/s, 10° | - | - |
| 1777492920 | 17.78° C | 44% | 1011.8 hPa | 0 mm | 2.68 m/s, 209° | - | - |
| 1777492320 | 17.22° C | 44% | 1011.8 hPa | 0 mm | 3.13 m/s, 64° | - | - |
| 1777492022 | 17.78° C | 44% | 1011.8 hPa | 0 mm | 3.58 m/s, 266° | - | - |
| 1777491719 | 17.22° C | 45% | 1011.8 hPa | 0 mm | 4.47 m/s, 2° | - | - |
* Rain latest hour (hover to see other rain measurements)
** Current wind speed in m/s (hover to see current wind gust speed)